Location: Bailleul
(50.3375°N, 2.8513°E)
Time: 04:33:43
(UTC+00:00)

Spot 4 - Pass Details

Date: 19 April 2021
Orbit: 705 x 722 km, 98.3° (Epoch: 09 May)

Event Time Altitude Azimuth Distance (km) Brightness Sun altitude
Exits shadow 22:58:27 67° 291° (WNW) 784 4.0 -27.2°
Drops below altitude 10° 23:02:57 10° 342° (NNW) 2,223 7.4 -27.4°
Sets 23:05:15 0° 344° (NNW) 3,150 8.5 -27.5°
